Location: *
(44.0833°N, 6.0092°E)
Time: 20:53:05
(UTC+00:00)

Daily predictions for brighter satellites

Satellite Brightness Start Highest point End
(mag) Time Altitude Azimuth Time Altitude Azimuth Time Altitude Azimuth
Cosmos 1844 4.3 17:02:36 10° SW 17:08:16 65° WNW 17:14:03 10° NNE
Cosmos 1821 Rocket 4.1 17:03:43 10° N 17:09:53 89° WSW 17:16:04 10° S
Cosmos 1953 3.0 17:06:02 10° SSW 17:10:03 61° W 17:14:05 10° N
Cosmos 1605 Rocket 4.4 17:04:47 10° N 17:10:33 39° ENE 17:16:13 10° SE
Cosmos 1606 Rocket 3.9 17:08:39 10° SSW 17:13:01 72° W 17:17:22 10° N
Cosmos 1934 Rocket 4.1 17:07:20 10° N 17:13:38 64° E 17:19:57 10° SSE
CSL-04 Rocket 4.3 17:09:44 10° SE 17:14:38 34° ENE 17:19:31 10° N
Unknown 4.5 17:13:09 10° WNW 17:15:32 29° SW 17:17:54 10° SSE
USA 238 DEB 4.2 17:09:52 10° S 17:15:56 39° ESE 17:22:10 10° NE
USA 238 4.2 17:09:59 10° S 17:16:02 38° ESE 17:22:16 10° NE
Meteor 2-10 4.0 17:14:39 10° S 17:19:38 61° E 17:24:36 10° NNE
COBE Rocket 4.0 17:15:57 10° NNE 17:21:03 59° E 17:26:00 10° S
Nadezhda 3 Rocket 4.5 17:15:57 10° SSW 17:22:12 68° W 17:28:34 10° N
Cosmos 1535 Rocket 4.4 17:20:50 10° N 17:27:03 81° E 17:33:10 10° S
Unknown 4.1 17:24:06 10° NW 17:27:19 32° NNE 17:30:03 13° E
YAOGAN 6 3.0 17:26:59 10° SE 17:30:27 42° ENE 17:33:53 10° N
Cosmos 292 Rocket 3.9 17:26:21 10° SSW 17:31:06 78° WNW 17:35:52 10° NNE
Cosmos 1812 Rocket 4.4 17:29:57 10° SSE 17:33:44 29° E 17:37:35 10° NNE
Cosmos 1833 Rocket 2.8 17:29:09 10° NNW 17:34:41 55° ENE 17:40:11 10° SE
Cosmos 2058 4.4 17:31:53 10° NNE 17:34:43 17° ENE 17:36:43 13° ESE
Lacrosse 5 rocket 4.4 17:34:58 10° W 17:36:43 13° WSW 17:38:30 10° SSW
NOSS 3-2 (A) 3.7 17:33:46 10° S 17:39:06 43° ESE 17:45:03 10° NE
Ariane Rocket 3.9 17:37:53 10° ESE 17:42:09 28° ENE 17:46:26 10° N
Cosmos 1328 4.1 17:39:37 10° NNW 17:43:35 71° W 17:47:30 10° S
YAOGAN 1 2.7 17:40:26 10° SSE 17:44:37 52° ENE 17:48:51 10° N
SKYMED 2 3.5 17:40:43 10° NNE 17:45:05 75° ESE 17:49:25 10° S
Cosmos 1300 3.4 17:48:57 10° SSE 17:52:20 31° E 17:55:45 10° NNE
Cosmos 1939 Rocket 3.6 17:49:50 10° SE 17:53:25 33° ENE 17:57:04 10° N
Shenzhou-11 Module 2.9 17:52:16 10° W 17:54:51 35° SSW 17:56:18 20° SE
Cosmos 2100 Rocket 4.5 17:49:54 10° N 17:55:34 36° ENE 18:01:10 10° SE
Abrixas rocket 2.6 17:53:08 10° W 17:56:07 50° NNW 17:57:37 25° NE
CZ-2D R/B 3.7 17:53:01 10° SE 17:56:35 38° ENE 18:00:12 10° N
CSL-04 Debris 4.1 17:57:24 10° SSE 18:02:52 84° ENE 18:08:23 10° NNW
NOSS 3-2 (C) 3.7 17:59:31 10° S 18:04:52 43° ESE 18:09:34 16° NE
Cosmos 2082 Rocket 2.2 17:59:55 10° NNW 18:05:37 66° ENE 18:11:15 10° SE
ADEOS Rocket 4.4 18:00:05 10° NE 18:05:42 22° E 18:11:00 10° SE
BREEZE-M DEB (TANK) 4.0 18:01:45 10° WNW 18:06:23 82° NNE 18:18:49 14° ESE
Cosmos 1153 Rocket 4.4 18:04:32 10° N 18:10:41 74° E 18:16:49 10° SSE
ASTEX 1 4.3 18:05:57 10° N 18:10:47 52° W 18:15:36 10° SSW
USA 116 3.3 18:07:54 10° NNE 18:11:09 86° WNW 18:14:42 10° SSW
Unknown 3.0 18:15:04 10° NW 18:18:30 87° NE 18:19:11 54° ESE
Cosmos 1461 3.5 18:16:54 10° NW 18:20:56 55° WSW 18:24:55 11° SSE
Meteor 2-1 Rocket 4.3 18:17:55 10° SSE 18:23:12 51° E 18:28:35 10° NNE
Cosmos 1763 Rocket 4.4 18:19:17 10° SSE 18:22:48 29° SE 18:22:48 29° SE
CZ-4 R/B 2.7 18:20:22 10° S 18:24:21 43° W 18:28:24 10° NNW
Lacrosse 5 1.8 18:19:55 10° NW 18:25:00 87° SW 18:27:30 31° SE
SJ 16-02 2.7 18:23:08 10° N 18:25:44 24° NE 18:25:44 24° NE
FALCON 9 DEB 3.0 18:24:13 10° NW 18:27:42 88° NE 18:27:59 74° ESE
In-Cosmos 22 Rocket 4.2 18:24:11 10° N 18:29:31 55° ENE 18:32:45 24° SE
ATLAS 3B R/B 2.8 18:26:03 10° S 18:32:26 47° ESE 18:35:04 32° ENE
COSMO-SKYMED 1 4.3 18:29:06 10° N 18:33:02 34° WNW 18:36:56 10° SW
ATLAS 5 CENTAUR R/B 4.5 18:33:54 10° NNW 18:35:05 11° NNW 18:36:18 10° N
Cosmos 2084 Rocket 3.4 18:30:40 10° NW 18:35:06 84° NE 18:36:06 53° SE
Unknown 4.1 18:36:32 10° NW 18:39:39 40° N 18:39:39 40° N
CENTAUR R/B 2.5 18:34:27 10° SSW 18:40:08 55° ESE 18:42:36 35° ENE
H-2A R/B 3.1 18:42:58 30° NE 18:42:58 30° NE 18:46:35 10° N
Falcon 9 debris 3.5 18:38:59 10° WNW 18:42:11 60° WSW 18:42:11 60° WSW
Unknown 3.4 18:39:29 10° WNW 18:42:37 67° WNW 18:42:37 67° WNW
Gbstr 26 Del rocket 4.4 18:37:14 10° WNW 18:43:25 64° SW 18:47:35 27° SE
Cosmos 2278 Rocket 3.6 18:40:01 10° WSW 18:45:13 36° NW 18:50:28 10° NNE
Cosmos 1459 Rocket 3.9 18:39:08 10° N 18:45:24 80° E 18:51:43 10° S
Cosmos 2061 Rocket 3.9 18:40:51 10° N 18:47:02 61° E 18:49:21 38° SE
Cosmos 2297 3.6 18:43:07 10° SSW 18:48:50 84° ESE 18:53:21 17° NNE
Cosmos 1898 Rocket 3.4 18:43:59 10° NNW 18:49:17 69° ENE 18:50:02 60° ESE
Okean 3 Rocket 3.9 18:56:32 10° N 19:00:15 59° N 19:00:15 59° N
ARGOS 4.1 19:05:13 34° NNE 19:05:13 34° NNE 19:08:37 10° N
USA 238 DEB 4.4 19:00:14 10° WSW 19:06:43 50° NW 19:12:34 14° NNE
USA 238 4.4 19:00:19 10° WSW 19:06:49 50° NW 19:12:38 14° NNE
Cosmos 44 3.6 19:04:24 10° SW 19:09:18 63° NW 19:09:46 59° NNW
Cosmos 2058 4.1 19:07:51 10° NNW 19:11:51 42° W 19:13:00 34° SW
Cosmos 2173 Rocket 4.3 19:07:30 10° NNW 19:13:40 64° W 19:19:43 10° S
Cosmos 1864 Rocket 4.3 19:12:59 10° N 19:18:59 79° NE 19:18:59 79° NE
Ariane Rocket 4.2 19:16:10 10° SSW 19:20:55 40° W 19:25:44 10° NNW
Cosmos 1802 Rocket 4.3 19:15:59 10° NNW 19:22:22 67° W 19:26:33 22° S
Cosmos 2123 Rocket 3.9 19:18:21 10° S 19:24:50 85° NNE 19:30:58 10° N
Cosmos 1725 Rocket 4.0 19:30:00 10° N 19:36:08 78° WNW 19:36:08 78° WNW
Cosmos 1937 Rocket 4.5 19:35:47 10° NNW 19:39:25 43° NW 19:39:25 43° NW
ADEOS Rocket 3.5 19:44:19 10° N 19:51:59 77° WNW 19:58:59 10° SSW
SJ 16-02 4.1 20:01:39 10° NW 20:02:46 16° NW 20:02:46 16° NW
Lacrosse 5 4.4 20:04:23 10° W 20:06:45 15° WSW 20:06:45 15° WSW
H-2A R/B 4.2 20:23:36 24° NW 20:23:36 24° NW 20:26:04 10° NNW
ATLAS 3B R/B 3.7 20:16:54 10° WSW 20:22:24 40° WNW 20:22:24 40° WNW
CENTAUR R/B 3.9 20:25:25 10° WSW 20:29:52 34° WNW 20:29:52 34° WNW
